TimeCDT,TemperatureF,Dew PointF,Humidity,Sea Level PressureIn,VisibilityMPH,Wind Direction,Wind SpeedMPH,Gust SpeedMPH,PrecipitationIn,Events,Conditions,WindDirDegrees,DateUTC
12:15 AM,41.5,27.9,58,30.22,10.0,ESE,13.8,19.6,N/A,,Overcast,120,2013-04-21 05:15:00
12:35 AM,41.5,27.7,58,30.21,10.0,ESE,15.0,-,N/A,,Overcast,110,2013-04-21 05:35:00
12:55 AM,41.4,27.3,57,30.21,10.0,ESE,12.7,18.4,N/A,,Mostly Cloudy,120,2013-04-21 05:55:00
1:15 AM,40.8,27.3,59,30.22,10.0,SE,11.5,-,N/A,,Scattered Clouds,130,2013-04-21 06:15:00
1:35 AM,41.0,27.5,59,30.21,10.0,ESE,13.8,17.3,N/A,,Scattered Clouds,120,2013-04-21 06:35:00
4:15 AM,40.5,30.6,68,30.22,10.0,SE,5.8,-,N/A,,Overcast,140,2013-04-21 09:15:00
4:35 AM,40.3,31.1,70,30.20,10.0,ESE,10.4,-,N/A,,Overcast,120,2013-04-21 09:35:00
4:55 AM,40.3,31.1,70,30.20,10.0,SE,11.5,-,N/A,,Overcast,130,2013-04-21 09:55:00
5:15 AM,40.3,31.1,70,30.20,10.0,SE,12.7,-,N/A,,Overcast,130,2013-04-21 10:15:00
5:35 AM,40.3,31.5,71,30.20,10.0,SE,13.8,-,N/A,,Overcast,130,2013-04-21 10:35:00
5:55 AM,40.3,31.5,71,30.20,10.0,SE,15.0,-,N/A,,Overcast,140,2013-04-21 10:55:00
6:15 AM,40.1,31.6,72,30.20,10.0,SE,15.0,-,N/A,,Scattered Clouds,140,2013-04-21 11:15:00
6:35 AM,40.1,32.0,73,30.21,10.0,SE,15.0,-,N/A,,Mostly Cloudy,130,2013-04-21 11:35:00
6:55 AM,40.3,32.0,72,30.21,10.0,SE,13.8,-,N/A,,Overcast,140,2013-04-21 11:55:00
7:15 AM,40.1,32.2,73,30.22,10.0,SE,15.0,-,N/A,,Mostly Cloudy,140,2013-04-21 12:15:00
7:35 AM,41.4,32.7,71,30.22,10.0,SE,17.3,-,N/A,,Mostly Cloudy,140,2013-04-21 12:35:00
7:55 AM,42.1,33.3,71,30.22,10.0,SE,15.0,-,N/A,,Scattered Clouds,140,2013-04-21 12:55:00
8:15 AM,43.0,33.6,70,30.22,10.0,SE,13.8,-,N/A,,Scattered Clouds,140,2013-04-21 13:15:00
8:35 AM,43.9,34.0,68,30.23,10.0,SSE,16.1,-,N/A,,Mostly Cloudy,150,2013-04-21 13:35:00
8:55 AM,46.0,35.2,66,30.22,10.0,SSE,15.0,21.9,N/A,,Mostly Cloudy,150,2013-04-21 13:55:00
9:15 AM,48.2,36.1,63,30.22,10.0,SSE,15.0,-,N/A,,Overcast,150,2013-04-21 14:15:00
9:35 AM,49.1,36.7,62,30.22,10.0,SSE,16.1,-,N/A,,Overcast,160,2013-04-21 14:35:00
9:55 AM,51.1,37.8,60,30.22,10.0,SSE,18.4,24.2,N/A,,Overcast,160,2013-04-21 14:55:00
10:15 AM,53.1,38.3,57,30.22,10.0,South,20.7,27.6,N/A,,Overcast,170,2013-04-21 15:15:00
10:35 AM,54.7,39.4,56,30.21,10.0,SSE,17.3,-,N/A,,Mostly Cloudy,160,2013-04-21 15:35:00
10:55 AM,55.8,40.6,57,30.21,10.0,SSE,18.4,24.2,N/A,,Scattered Clouds,160,2013-04-21 15:55:00
11:15 AM,57.4,41.0,54,30.21,7.0,South,15.0,24.2,N/A,,Clear,180,2013-04-21 16:15:00
11:35 AM,58.6,42.1,54,30.20,10.0,South,18.4,24.2,N/A,,Clear,170,2013-04-21 16:35:00
11:55 AM,59.9,42.1,52,30.20,10.0,SSE,17.3,-,N/A,,Clear,160,2013-04-21 16:55:00
12:15 PM,60.8,42.4,51,30.19,7.0,SSE,16.1,24.2,N/A,,Clear,160,2013-04-21 17:15:00
12:35 PM,62.1,42.6,49,30.18,7.0,South,17.3,24.2,N/A,,Clear,170,2013-04-21 17:35:00
12:55 PM,63.1,43.2,48,30.17,7.0,South,19.6,26.5,N/A,,Clear,180,2013-04-21 17:55:00
1:15 PM,63.7,42.1,45,30.16,7.0,South,16.1,31.1,N/A,,Clear,170,2013-04-21 18:15:00
1:35 PM,64.2,42.8,46,30.16,7.0,South,21.9,26.5,N/A,,Clear,190,2013-04-21 18:35:00
1:55 PM,64.4,41.9,44,30.15,10.0,South,18.4,24.2,N/A,,Scattered Clouds,190,2013-04-21 18:55:00
2:15 PM,64.9,39.9,40,30.14,7.0,South,24.2,31.1,N/A,,Scattered Clouds,170,2013-04-21 19:15:00
2:35 PM,65.5,40.8,41,30.13,10.0,South,18.4,26.5,N/A,,Scattered Clouds,170,2013-04-21 19:35:00
2:55 PM,62.8,40.6,44,30.13,10.0,South,18.4,27.6,N/A,,Mostly Cloudy,170,2013-04-21 19:55:00
3:15 PM,63.7,40.6,43,30.12,7.0,South,16.1,20.7,N/A,,Mostly Cloudy,170,2013-04-21 20:15:00
3:35 PM,64.9,37.0,36,30.10,10.0,South,20.7,26.5,N/A,,Overcast,180,2013-04-21 20:35:00
3:55 PM,63.9,36.5,36,30.10,7.0,South,18.4,26.5,N/A,,Overcast,180,2013-04-21 20:55:00
4:15 PM,64.8,35.4,34,30.10,10.0,South,21.9,28.8,N/A,,Overcast,190,2013-04-21 21:15:00
4:35 PM,65.1,35.4,33,30.09,10.0,South,20.7,28.8,N/A,,Mostly Cloudy,170,2013-04-21 21:35:00
4:55 PM,64.2,35.8,35,30.09,10.0,South,23.0,26.5,N/A,,Scattered Clouds,190,2013-04-21 21:55:00
5:15 PM,64.0,36.7,36,30.09,10.0,SSE,23.0,27.6,N/A,,Mostly Cloudy,160,2013-04-21 22:15:00
5:35 PM,64.2,37.0,37,30.09,10.0,South,20.7,26.5,N/A,,Scattered Clouds,170,2013-04-21 22:35:00
5:55 PM,62.8,36.9,38,30.09,10.0,South,16.1,24.2,N/A,,Mostly Cloudy,170,2013-04-21 22:55:00
6:15 PM,63.5,37.6,38,30.09,10.0,South,19.6,27.6,N/A,,Overcast,180,2013-04-21 23:15:00
6:35 PM,62.2,38.3,41,30.09,10.0,South,16.1,-,N/A,,Overcast,180,2013-04-21 23:35:00
6:55 PM,61.3,37.4,41,30.09,10.0,South,12.7,19.6,N/A,,Overcast,180,2013-04-21 23:55:00
7:15 PM,61.0,38.1,43,30.09,7.0,South,11.5,19.6,N/A,,Overcast,180,2013-04-22 00:15:00
7:35 PM,60.8,37.4,42,30.09,10.0,South,13.8,-,N/A,,Overcast,180,2013-04-22 00:35:00
7:55 PM,59.2,38.7,47,30.10,10.0,South,11.5,-,N/A,,Mostly Cloudy,170,2013-04-22 00:55:00
8:15 PM,59.2,38.7,47,30.10,10.0,South,11.5,16.1,N/A,,Mostly Cloudy,170,2013-04-22 01:15:00
8:35 PM,57.7,39.9,51,30.10,10.0,SSE,8.1,-,N/A,,Overcast,160,2013-04-22 01:35:00
8:55 PM,57.4,40.1,53,30.11,10.0,SSE,8.1,-,N/A,,Overcast,150,2013-04-22 01:55:00
9:15 PM,56.3,40.5,55,30.12,10.0,SSE,6.9,-,N/A,,Overcast,150,2013-04-22 02:15:00
9:35 PM,56.5,41.2,57,30.12,10.0,SSE,8.1,-,N/A,,Overcast,150,2013-04-22 02:35:00
9:55 PM,56.3,41.5,58,30.13,10.0,SSE,9.2,-,N/A,,Overcast,150,2013-04-22 02:55:00
10:15 PM,56.3,41.4,57,30.13,10.0,SSE,9.2,-,N/A,,Overcast,160,2013-04-22 03:15:00
10:35 PM,56.3,41.2,57,30.13,10.0,SSE,9.2,-,N/A,,Overcast,160,2013-04-22 03:35:00
10:55 PM,56.3,41.0,57,30.13,10.0,SSE,9.2,-,N/A,,Overcast,160,2013-04-22 03:55:00
11:15 PM,56.1,41.0,57,30.13,10.0,SSE,10.4,-,N/A,,Overcast,150,2013-04-22 04:15:00
11:35 PM,55.8,40.3,56,30.13,10.0,SSE,11.5,-,N/A,,Overcast,160,2013-04-22 04:35:00
11:55 PM,54.9,40.8,59,30.13,10.0,SSE,11.5,-,N/A,,Overcast,150,2013-04-22 04:55:00